sat.trackr.live / text

‹ back to catalog

STARLINK-33746

NORAD 63446 · 2025-069P

PAYLOAD ACTIVE UNKNOWN

§ Identity

Operator
Country
US
Launch date
2025-04-04
Launch site
AFWTR
Launch vehicle
Mass (kg)
RCS (m²)

Purposes: comms

External: N2YO · Heavens-Above · Gunter

§ Orbital elements

Epoch: 2026-05-24T23:56:01.636224Z

Period
93.37 min
Inclination
53.1584°
Eccentricity
0.0001235
Mean motion
15.42173981 rev/d
Perigee alt
438.9 km
Apogee alt
440.5 km
Semi-major
6,817.8 km
B*
7.8525e-4
RAAN
145.4840°
Arg perigee
78.5370°
Mean anomaly
281.5775°
Rev number
6,507

§ Raw data

STARLINK-337461 63446U 25069P   26144.99724116  .00033926  00000+0  78525-3 0  99932 63446  53.1584 145.4840 0001235  78.5370 281.5775 15.42173981 65072

JSON: /api/v1/satellites/63446 · /tle

For live sub-satellite position, see the globe view (requires WebGL).

§ Visibility from observer

Set your observer location to see the next 7 days of passes ≥ 10°. The values pass through the URL so the page stays shareable.

No JS? Fill the form by hand. The geolocation button needs JavaScript.